| time (UTC) | temp F | wind direction | speed knots | gust knots | rain 1hr in | rain 24hr in | rain mn in | humidity % | barometer mb |
| 20260903101529 | 70 | 60 | 0.0 | 0.0 | 0.00 | 0.00 | 0.00 | 97 | 1018.5 |
| 20260903100036 | 70 | 60 | 0.0 | 0.0 | 0.00 | 0.00 | 0.00 | 96 | 1018.4 |
| 20260903094522 | 70 | 60 | 0.0 | 0.0 | 0.00 | 0.00 | 0.00 | 96 | 1018.3 |
| 20260903093012 | 71 | 60 | 0.0 | 0.0 | 0.00 | 0.00 | 0.00 | 97 | 1018.4 |
| 20260903091519 | 71 | 60 | 0.0 | 0.0 | 0.00 | 0.00 | 0.00 | 96 | 1018.4 |
| 20260903090004 | 71 | 60 | 0.0 | 0.0 | 0.00 | 0.00 | 0.00 | 96 | 1018.3 |
| 20260903084508 | 71 | 60 | 0.0 | 0.0 | 0.00 | 0.00 | 0.00 | 96 | 1018.2 |
| 20260903083009 | 71 | 60 | 0.0 | 0.0 | 0.00 | 0.00 | 0.00 | 96 | 1018.1 |
| 20260903081516 | 71 | 60 | 0.0 | 0.0 | 0.00 | 0.00 | 0.00 | 96 | 1018.2 |
| 20260903080028 | 71 | 60 | 0.0 | 0.0 | 0.00 | 0.00 | 0.00 | 96 | 1018.3 |
| 20260903074506 | 72 | 60 | 0.0 | 0.0 | 0.00 | 0.00 | 0.00 | 96 | 1018.2 |
| 20260903073008 | 72 | 60 | 0.0 | 0.0 | 0.00 | 0.00 | 0.00 | 96 | 1018.1 |
| 20260903071525 | 72 | 60 | 0.0 | 0.0 | 0.00 | 0.00 | 0.00 | 96 | 1018.2 |
| 20260903070022 | 72 | 60 | 0.0 | 0.0 | 0.00 | 0.00 | 0.00 | 96 | 1018.2 |
| 20260903064527 | 72 | 60 | 0.0 | 0.0 | 0.00 | 0.00 | 0.00 | 96 | 1018.2 |
| 20260903063010 | 72 | 60 | 0.0 | 0.0 | 0.00 | 0.00 | 0.00 | 96 | 1018.2 |
| 20260903061509 | 73 | 60 | 0.0 | 1.7 | 0.00 | 0.00 | 0.00 | 96 | 1018.0 |
| 20260903060019 | 73 | 60 | 0.0 | 0.0 | 0.00 | 0.00 | 0.00 | 95 | 1018.2 |
| 20260903054525 | 73 | 60 | 0.0 | 0.0 | 0.00 | 0.00 | 0.00 | 95 | 1018.1 |
| 20260903053027 | 73 | 60 | 0.0 | 0.0 | 0.00 | 0.00 | 0.00 | 95 | 1018.1 |
| 20260903051516 | 74 | 60 | 0.0 | 0.0 | 0.00 | 0.00 | 0.00 | 95 | 1018.1 |
| 20260903050012 | 74 | 60 | 0.0 | 0.0 | 0.00 | 0.00 | 0.00 | 95 | 1018.0 |
| 20260903044520 | 74 | 60 | 0.0 | 0.0 | 0.00 | 0.00 | 0.00 | 95 | 1017.9 |
| 20260903043059 | 74 | 60 | 0.0 | 0.0 | 0.00 | 0.00 | 0.00 | 95 | 1017.9 |
| 20260903041532 | 74 | 60 | 0.0 | 0.0 | 0.00 | 0.00 | 0.00 | 95 | 1017.9 |
| 20260903040016 | 75 | 60 | 0.0 | 0.0 | 0.00 | 0.00 | 0.00 | 95 | 1018.1 |
| 20260903034532 | 75 | 60 | 0.0 | 0.0 | 0.00 | 0.00 | 0.00 | 94 | 1018.0 |
| 20260903033023 | 75 | 60 | 0.0 | 0.0 | 0.00 | 0.00 | 0.00 | 94 | 1018.0 |
| 20260903031527 | 75 | 60 | 0.0 | 0.0 | 0.00 | 0.00 | 0.00 | 94 | 1018.2 |
| 20260903030031 | 76 | 60 | 0.0 | 1.7 | 0.00 | 0.00 | 0.00 | 93 | 1018.2 |
| 20260903024512 | 76 | 60 | 0.0 | 1.7 | 0.00 | 0.00 | 0.00 | 93 | 1018.3 |
| 20260903023019 | 76 | 60 | 0.0 | 0.9 | 0.00 | 0.00 | 0.00 | 92 | 1018.2 |
| 20260903021525 | 77 | 60 | 0.0 | 0.9 | 0.00 | 0.00 | 0.00 | 92 | 1018.1 |
| 20260903020031 | 77 | 60 | 0.0 | 0.9 | 0.00 | 0.00 | 0.00 | 91 | 1018.1 |
| 20260903014517 | 78 | 60 | 0.0 | 0.9 | 0.00 | 0.00 | 0.00 | 91 | 1018.1 |
| 20260903013016 | 78 | 60 | 0.0 | 0.9 | 0.00 | 0.00 | 0.00 | 90 | 1018.0 |
| 20260903011524 | 79 | 60 | 0.9 | 1.7 | 0.00 | 0.00 | 0.00 | 89 | 1017.9 |
| 20260903010033 | 79 | 60 | 0.0 | 1.7 | 0.00 | 0.00 | 0.00 | 87 | 1017.7 |
| 20260903004508 | 80 | 60 | 0.0 | 1.7 | 0.00 | 0.00 | 0.00 | 85 | 1017.5 |
| 20260903003013 | 82 | 36 | 0.9 | 1.7 | 0.00 | 0.00 | 0.00 | 82 | 1017.3 |
| 20260903001503 | 83 | 36 | 0.0 | 1.7 | 0.00 | 0.00 | 0.00 | 80 | 1017.3 |
| 20260903000004 | 85 | 36 | 0.0 | 1.7 | 0.00 | 0.00 | 0.00 | 77 | 1017.3 |
| 20260902234510 | 86 | 36 | 0.0 | 1.7 | 0.00 | 0.00 | 0.00 | 74 | 1017.1 |
| 20260902233012 | 88 | 36 | 0.9 | 1.7 | 0.00 | 0.00 | 0.00 | 70 | 1017.0 |
| 20260902231515 | 90 | 35 | 0.0 | 2.6 | 0.00 | 0.00 | 0.00 | 67 | 1017.1 |
| 20260902230002 | 93 | 55 | 0.0 | 2.6 | 0.00 | 0.00 | 0.00 | 63 | 1017.2 |
| 20260902224504 | 94 | 339 | 0.0 | 1.7 | 0.00 | 0.00 | 0.00 | 60 | 1017.1 |
| 20260902223021 | 94 | 339 | 0.0 | 2.6 | 0.00 | 0.00 | 0.00 | 59 | 1017.1 |
| 20260902221518 | 95 | 274 | 0.0 | 2.6 | 0.00 | 0.00 | 0.00 | 59 | 1017.1 |
| 20260902220022 | 95 | 63 | 0.0 | 3.5 | 0.00 | 0.00 | 0.00 | 59 | 1017.2 |
| 20260902214504 | 95 | 247 | 0.9 | 7.0 | 0.00 | 0.00 | 0.00 | 52 | 1017.2 |
| 20260902213008 | 96 | 230 | 1.7 | 6.1 | 0.00 | 0.00 | 0.00 | 49 | 1017.3 |
| 20260902211512 | 97 | 173 | 0.9 | 3.5 | 0.00 | 0.00 | 0.00 | 50 | 1017.3 |
| 20260902210019 | 97 | 192 | 1.7 | 7.0 | 0.00 | 0.00 | 0.00 | 50 | 1017.4 |
| 20260902204526 | 97 | 143 | 0.9 | 4.3 | 0.00 | 0.00 | 0.00 | 49 | 1017.5 |
| 20260902203007 | 97 | 279 | 1.7 | 7.0 | 0.00 | 0.00 | 0.00 | 48 | 1017.8 |
| 20260902201508 | 96 | 207 | 0.9 | 7.0 | 0.00 | 0.00 | 0.00 | 49 | 1017.9 |
| 20260902200021 | 96 | 255 | 2.6 | 7.8 | 0.00 | 0.00 | 0.00 | 47 | 1018.1 |
| 20260902194526 | 96 | 180 | 0.9 | 7.0 | 0.00 | 0.00 | 0.00 | 48 | 1018.2 |
| 20260902193029 | 96 | 257 | 4.3 | 7.0 | 0.00 | 0.00 | 0.00 | 46 | 1018.3 |
| 20260902191507 | 95 | 359 | 1.7 | 7.8 | 0.00 | 0.00 | 0.00 | 52 | 1018.3 |
| 20260902190017 | 95 | 338 | 1.7 | 4.3 | 0.00 | 0.00 | 0.00 | 53 | 1018.5 |
| 20260902184519 | 94 | 239 | 0.9 | 3.5 | 0.00 | 0.00 | 0.00 | 56 | 1018.7 |
| 20260902183024 | 93 | 134 | 0.9 | 3.5 | 0.00 | 0.00 | 0.00 | 63 | 1018.9 |
| 20260902181528 | 92 | 120 | 0.0 | 1.7 | 0.00 | 0.00 | 0.00 | 68 | 1019.1 |
| 20260902180010 | 92 | 131 | 0.0 | 2.6 | 0.00 | 0.00 | 0.00 | 65 | 1019.3 |
| 20260902174512 | 94 | 165 | 1.7 | 4.3 | 0.00 | 0.00 | 0.00 | 55 | 1019.4 |
| 20260902173020 | 95 | 215 | 1.7 | 7.0 | 0.00 | 0.00 | 0.00 | 57 | 1019.4 |
| 20260902171526 | 94 | 110 | 1.7 | 9.6 | 0.00 | 0.00 | 0.00 | 58 | 1019.7 |
| 20260902170030 | 94 | 233 | 0.9 | 7.0 | 0.00 | 0.00 | 0.00 | 57 | 1020.0 |
| 20260902164515 | 93 | 148 | 0.9 | 6.1 | 0.00 | 0.00 | 0.00 | 61 | 1020.2 |
| 20260902163015 | 92 | 257 | 0.9 | 6.1 | 0.00 | 0.00 | 0.00 | 62 | 1020.4 |
| 20260902161524 | 92 | 255 | 1.7 | 5.2 | 0.00 | 0.00 | 0.00 | 61 | 1020.6 |
| 20260902160032 | 91 | 248 | 1.7 | 5.2 | 0.00 | 0.00 | 0.00 | 65 | 1020.7 |
| 20260902154506 | 90 | 235 | 2.6 | 5.2 | 0.00 | 0.00 | 0.00 | 64 | 1020.8 |
| 20260902153006 | 90 | 149 | 2.6 | 5.2 | 0.00 | 0.00 | 0.00 | 64 | 1020.8 |
| 20260902151504 | 89 | 137 | 1.7 | 6.1 | 0.00 | 0.00 | 0.00 | 70 | 1020.8 |
| 20260902150007 | 88 | 167 | 0.9 | 4.3 | 0.00 | 0.00 | 0.00 | 70 | 1020.8 |
| 20260902144507 | 87 | 129 | 0.9 | 6.1 | 0.00 | 0.00 | 0.00 | 73 | 1020.7 |
| 20260902143006 | 86 | 172 | 1.7 | 4.3 | 0.00 | 0.00 | 0.00 | 75 | 1020.6 |
| 20260902141508 | 84 | 140 | 0.0 | 0.9 | 0.00 | 0.00 | 0.00 | 80 | 1020.8 |
| 20260902140007 | 82 | 144 | 0.0 | 0.0 | 0.00 | 0.00 | 0.00 | 82 | 1020.8 |
| 20260902134510 | 80 | 189 | 0.0 | 0.9 | 0.00 | 0.00 | 0.00 | 87 | 1020.6 |
| 20260902133008 | 77 | 220 | 0.0 | 0.9 | 0.00 | 0.00 | 0.00 | 92 | 1020.6 |
| 20260902131508 | 74 | 59 | 0.0 | 0.0 | 0.00 | 0.00 | 0.00 | 97 | 1020.4 |
| 20260902130010 | 73 | 59 | 0.0 | 0.0 | 0.00 | 0.00 | 0.00 | 98 | 1020.5 |
| 20260902124510 | 72 | 59 | 0.0 | 0.0 | 0.00 | 0.00 | 0.00 | 98 | 1020.3 |
| 20260902123010 | 71 | 59 | 0.0 | 0.0 | 0.00 | 0.00 | 0.00 | 98 | 1020.5 |
| 20260902121510 | 69 | 59 | 0.0 | 0.0 | 0.00 | 0.00 | 0.00 | 98 | 1020.3 |
| 20260902120010 | 69 | 59 | 0.0 | 0.0 | 0.00 | 0.00 | 0.00 | 97 | 1020.3 |
| 20260902114516 | 68 | 59 | 0.0 | 0.0 | 0.00 | 0.00 | 0.00 | 97 | 1020.2 |
| 20260902113010 | 68 | 59 | 0.0 | 0.0 | 0.00 | 0.00 | 0.00 | 97 | 1020.2 |
| 20260902111512 | 68 | 59 | 0.0 | 0.0 | 0.00 | 0.00 | 0.00 | 97 | 1020.0 |
| 20260902110017 | 68 | 59 | 0.0 | 0.0 | 0.00 | 0.00 | 0.00 | 97 | 1020.0 |
| 20260902104512 | 68 | 59 | 0.0 | 0.0 | 0.00 | 0.00 | 0.00 | 97 | 1019.9 |
| 20260902103015 | 68 | 59 | 0.0 | 0.0 | 0.00 | 0.00 | 0.00 | 97 | 1019.9 |